When you browse on this site, cookies collect data to enhance your experience and personalize the content and advertising you see.
Visit our Privacy Policy to learn more. By continuing to use the site, you agree to this use of cookies and data.
  • In Hungary
  • List of Countries
  • For 7 days
  • Water Temperature
  • Satellite Maps
  • Weather Map
  • News
  • Weather Widgets
  • user-avatar
    Login

    Hourly Weather San Juan

    Today, 27 March, Wednesday

    Time Temperature Precipitation Wind Pressure Humidity
    00:00 +17°C° 0 mm 2 mps 710 mmHg 77%
    01:00 +18°C° 0 mm 1 mps 710 mmHg 79%
    02:00 +16°C° 0 mm 1 mps 709 mmHg 83%
    03:00 +16°C° 0 mm 1 mps 709 mmHg 86%
    04:00 +14°C° 0 mm 0 mps 709 mmHg 89%
    05:00 +16°C° 0 mm 1 mps 709 mmHg 87%
    06:00 +16°C° 0 mm 1 mps 709 mmHg 84%
    07:00 +18°C° 0 mm 1 mps 709 mmHg 82%
    08:00 +19°C° 0 mm 1 mps 709 mmHg 73%
    09:00 +20°C° 0 mm 2 mps 709 mmHg 64%
    10:00 +23°C° 0 mm 2 mps 709 mmHg 54%
    11:00 +24°C° 0 mm 2 mps 708 mmHg 49%
    12:00 +25°C° 0 mm 2 mps 708 mmHg 43%
    13:00 +26°C° 0 mm 2 mps 707 mmHg 37%
    14:00 +27°C° 0 mm 2 mps 707 mmHg 36%
    15:00 +27°C° 0 mm 2 mps 707 mmHg 35%
    16:00 +27°C° 0 mm 2 mps 707 mmHg 34%
    17:00 +26°C° 0 mm 2 mps 707 mmHg 37%
    18:00 +24°C° 0 mm 2 mps 708 mmHg 41%
    19:00 +23°C° 0 mm 1 mps 708 mmHg 45%
    20:00 +21°C° 0 mm 2 mps 709 mmHg 47%
    21:00 +21°C° 0 mm 2 mps 709 mmHg 49%
    22:00 +20°C° 0 mm 3 mps 709 mmHg 52%
    23:00 +20°C° 0 mm 3 mps 709 mmHg 54%

    Tomorrow, 28 March, Thursday

    Time Temperature Precipitation Wind Pressure Humidity
    00:00 +19°C° 0 mm 3 mps 709 mmHg 56%
    01:00 +19°C° 0 mm 3 mps 708 mmHg 58%
    02:00 +19°C° 0 mm 3 mps 708 mmHg 59%
    03:00 +18°C° 0 mm 3 mps 708 mmHg 61%
    04:00 +18°C° 0 mm 3 mps 708 mmHg 62%
    05:00 +19°C° 0 mm 3 mps 708 mmHg 59%
    06:00 +19°C° 0 mm 4 mps 708 mmHg 56%
    07:00 +20°C° 0 mm 4 mps 709 mmHg 53%
    08:00 +22°C° 0 mm 3 mps 709 mmHg 48%
    09:00 +24°C° 0 mm 3 mps 709 mmHg 43%
    10:00 +26°C° 0 mm 2 mps 709 mmHg 37%
    11:00 +27°C° 0 mm 2 mps 709 mmHg 34%
    12:00 +28°C° 0 mm 2 mps 708 mmHg 31%
    13:00 +29°C° 0 mm 2 mps 708 mmHg 27%
    14:00 +29°C° 0 mm 3 mps 708 mmHg 27%
    15:00 +30°C° 0 mm 3 mps 707 mmHg 26%
    16:00 +30°C° 0 mm 3 mps 707 mmHg 25%
    17:00 +28°C° 0 mm 3 mps 707 mmHg 29%
    18:00 +27°C° 0 mm 2 mps 708 mmHg 33%
    19:00 +25°C° 0 mm 2 mps 708 mmHg 37%
    20:00 +24°C° 0 mm 2 mps 708 mmHg 38%
    21:00 +24°C° 0 mm 2 mps 709 mmHg 40%
    22:00 +23°C° 0 mm 2 mps 709 mmHg 42%
    23:00 +23°C° 0 mm 2 mps 708 mmHg 44%

    Day after tomorrow, 29 March, Friday

    Time Temperature Precipitation Wind Pressure Humidity
    00:00 +21°C° 0 mm 3 mps 708 mmHg 45%
    01:00 +21°C° 0 mm 3 mps 707 mmHg 47%
    02:00 +21°C° 0 mm 3 mps 707 mmHg 50%
    03:00 +21°C° 0 mm 3 mps 706 mmHg 53%
    04:00 +21°C° 0 mm 4 mps 706 mmHg 57%
    05:00 +21°C° 0 mm 4 mps 706 mmHg 54%
    06:00 +22°C° 0 mm 4 mps 706 mmHg 51%
    07:00 +23°C° 0 mm 4 mps 706 mmHg 48%
    08:00 +26°C° 0 mm 3 mps 706 mmHg 42%
    09:00 +27°C° 0 mm 3 mps 706 mmHg 36%
    10:00 +29°C° 0 mm 3 mps 706 mmHg 31%
    11:00 +30°C° 0 mm 3 mps 705 mmHg 27%
    12:00 +31°C° 0 mm 3 mps 704 mmHg 23%
    13:00 +33°C° 0 mm 3 mps 704 mmHg 19%
    14:00 +33°C° 0 mm 3 mps 703 mmHg 19%
    15:00 +33°C° 0 mm 4 mps 703 mmHg 20%
    16:00 +33°C° 0 mm 4 mps 703 mmHg 20%
    17:00 +30°C° 0 mm 4 mps 703 mmHg 26%
    18:00 +29°C° 0 mm 3 mps 704 mmHg 32%
    19:00 +27°C° 0 mm 3 mps 704 mmHg 39%
    20:00 +26°C° 0 mm 2 mps 704 mmHg 41%
    21:00 +25°C° 0 mm 2 mps 705 mmHg 43%
    22:00 +25°C° 0 mm 1 mps 705 mmHg 45%
    23:00 +24°C° 0 mm 1 mps 705 mmHg 46%

    30 March, Saturday

    Time Temperature Precipitation Wind Pressure Humidity
    00:00 +23°C° 0 mm 1 mps 705 mmHg 47%
    01:00 +23°C° 0 mm 1 mps 705 mmHg 48%
    02:00 +23°C° 0 mm 1 mps 705 mmHg 49%
    03:00 +22°C° 0 mm 1 mps 705 mmHg 49%
    04:00 +22°C° 0 mm 1 mps 705 mmHg 50%
    05:00 +23°C° 0 mm 1 mps 705 mmHg 47%
    06:00 +24°C° 0 mm 1 mps 706 mmHg 44%
    07:00 +25°C° 0 mm 1 mps 707 mmHg 42%
    08:00 +27°C° 0 mm 3 mps 707 mmHg 38%
    09:00 +29°C° 0 mm 5 mps 707 mmHg 34%
    10:00 +30°C° 0 mm 6 mps 707 mmHg 31%
    11:00 +30°C° 0 mm 6 mps 707 mmHg 30%
    12:00 +32°C° 0 mm 6 mps 706 mmHg 30%
    13:00 +32°C° 0 mm 6 mps 705 mmHg 29%
    14:00 +32°C° 0 mm 6 mps 705 mmHg 29%
    15:00 +32°C° 0 mm 6 mps 705 mmHg 30%
    16:00 +32°C° 0 mm 6 mps 705 mmHg 30%
    17:00 +30°C° 0 mm 5 mps 706 mmHg 33%
    18:00 +28°C° 0 mm 4 mps 707 mmHg 37%
    19:00 +27°C° 0 mm 4 mps 707 mmHg 40%
    20:00 +26°C° 0 mm 3 mps 707 mmHg 40%
    21:00 +26°C° 0 mm 2 mps 707 mmHg 40%
    22:00 +25°C° 0 mm 2 mps 708 mmHg 41%
    23:00 +24°C° 0 mm 1 mps 707 mmHg 42%

    31 March, Sunday

    Time Temperature Precipitation Wind Pressure Humidity
    00:00 +24°C° 0 mm 1 mps 707 mmHg 43%
    01:00 +23°C° 0 mm 1 mps 706 mmHg 44%
    02:00 +23°C° 0 mm 1 mps 706 mmHg 43%
    03:00 +23°C° 0 mm 1 mps 706 mmHg 43%
    04:00 +23°C° 0 mm 1 mps 706 mmHg 43%
    05:00 +23°C° 0 mm 1 mps 706 mmHg 40%
    06:00 +24°C° 0 mm 1 mps 706 mmHg 38%
    07:00 +25°C° 0 mm 1 mps 707 mmHg 36%
    08:00 +26°C° 0 mm 1 mps 707 mmHg 34%
    09:00 +27°C° 0 mm 1 mps 707 mmHg 33%
    10:00 +29°C° 0 mm 1 mps 707 mmHg 32%
    11:00 +30°C° 0 mm 1 mps 706 mmHg 31%
    12:00 +31°C° 0 mm 2 mps 705 mmHg 29%
    13:00 +32°C° 0 mm 2 mps 704 mmHg 27%
    14:00 +32°C° 0 mm 2 mps 704 mmHg 27%
    15:00 +32°C° 0 mm 2 mps 704 mmHg 26%
    16:00 +32°C° 0 mm 2 mps 704 mmHg 26%
    17:00 +31°C° 0.1 mm 2 mps 704 mmHg 29%
    18:00 +30°C° 0.1 mm 1 mps 705 mmHg 32%
    19:00 +28°C° 0.1 mm 1 mps 705 mmHg 35%
    20:00 +28°C° 0 mm 1 mps 705 mmHg 36%
    21:00 +28°C° 0 mm 1 mps 706 mmHg 37%
    22:00 +27°C° 0 mm 1 mps 706 mmHg 38%
    23:00 +27°C° 0 mm 1 mps 706 mmHg 38%

    1 April, Monday

    Time Temperature Precipitation Wind Pressure Humidity
    00:00 +27°C° 0 mm 1 mps 706 mmHg 39%
    01:00 +26°C° 0 mm 1 mps 706 mmHg 40%
    02:00 +25°C° 0 mm 1 mps 706 mmHg 43%
    03:00 +24°C° 0 mm 1 mps 706 mmHg 46%
    04:00 +22°C° 0 mm 0 mps 706 mmHg 49%
    05:00 +23°C° 0 mm 0 mps 706 mmHg 45%
    06:00 +24°C° 0 mm 0 mps 707 mmHg 42%
    07:00 +25°C° 0 mm 0 mps 708 mmHg 39%
    08:00 +27°C° 0 mm 0 mps 708 mmHg 34%
    09:00 +30°C° 0 mm 1 mps 708 mmHg 29%
    10:00 +31°C° 0 mm 1 mps 708 mmHg 24%
    11:00 +32°C° 0 mm 2 mps 708 mmHg 22%
    12:00 +34°C° 0 mm 2 mps 707 mmHg 20%
    13:00 +35°C° 0 mm 2 mps 706 mmHg 18%
    14:00 +35°C° 0 mm 2 mps 706 mmHg 18%
    15:00 +35°C° 0 mm 2 mps 706 mmHg 18%
    16:00 +35°C° 0 mm 2 mps 706 mmHg 18%
    17:00 +32°C° 0 mm 1 mps 706 mmHg 21%
    18:00 +30°C° 0 mm 1 mps 706 mmHg 23%
    19:00 +29°C° 0 mm 1 mps 707 mmHg 26%
    20:00 +28°C° 0 mm 1 mps 707 mmHg 27%
    21:00 +28°C° 0 mm 1 mps 707 mmHg 28%
    22:00 +27°C° 0 mm 2 mps 707 mmHg 29%
    23:00 +27°C° 0 mm 2 mps 707 mmHg 32%
    Show more